This demonstration page uses our WeatherBlox Daily Observations layout. Learn more.

Left ArrowRight Arrow

Hourly Observations for March 26, 2016

Temp ( °F °C ) Dew Point ( °F °C ) Humidity (%) Winds ( mph kmh ) Pressure ( in mb ) Visibility ( mi km ) Precip ( " mm )
12:54 am 00:54 Mostly Cloudy 51 10.6 30 -1.1 44 44 SSE 15 24 29.87 1012 10 16 0.00 0.00
1:54 am 01:54 Cloudy 50 10 31 -0.6 48 48 SSE 10 17 29.87 1012 10 16 0.00 0.00
2:54 am 02:54 Cloudy 51 10.6 30 -1.1 44 44 SSE 13 20 29.86 1011 10 16 0.00 0.00
3:54 am 03:54 Cloudy 51 10.6 31 -0.6 46 46 SE 15 24 29.85 1011 10 16 0.00 0.00
4:54 am 04:54 Cloudy with Light Rain 50 10 33 0.6 52 52 SE 15 24 29.84 1011 10 16 0.00 0.03
5:54 am 05:54 Cloudy with Light Rain 47 8.3 36 2.2 66 66 SE 14 22 29.85 1011 10 16 0.00 0.03
6:54 am 06:54 Cloudy 47 8.3 36 2.2 66 66 SSE 8 13 29.88 1012 10 16 0.00 0.03
7:54 am 07:54 Cloudy with Light Rain 44 6.7 39 3.9 83 83 SE 9 15 29.91 1013 10 16 0.01 0.25
8:54 am 08:54 Cloudy with Light Rain 44 6.7 40 4.4 85 85 SE 7 11 29.92 1013 5 8 0.04 1.02
9:08 am 09:08 Cloudy with Light Rain 45 7 39 4 81 81 SSE 6 9 29.94 1014 6 10 0.00 0.00
9:54 am 09:54 Cloudy with Light Rain 44 6.7 40 4.4 85 85 SE 7 11 29.93 1014 4 6 0.02 0.51
10:23 am 10:23 Cloudy with Light Rain 43 6.1 40 4.4 89 89 SE 8 13 29.97 1015 4 6 0.04 1.02
10:40 am 10:40 Cloudy with Light Rain 43 6 41 5 93 93 SE 6 9 29.97 1015 3 5 0.00 0.00
10:54 am 10:54 Cloudy with Rain 43 6.1 41 5 93 93 SE 5 7 29.94 1014 3 5 0.10 2.54
11:17 am 11:17 Cloudy with Rain 43 6.1 41 5 93 93 SSE 5 7 29.97 1015 2 3 0.06 1.52
11:45 am 11:45 Cloudy with Light Rain 44 6.7 42 5.6 93 93 SE 5 7 29.97 1015 2 3 0.12 3.05
11:54 am 11:54 Cloudy with Light Rain 44 6.7 42 5.6 93 93 SSE 5 7 29.95 1014 2 3 0.13 3.30
12:01 pm 12:01 Cloudy with Light Rain 44 6.7 42 5.6 93 93 S 5 7 29.97 1015 3 5 0.01 0.25
12:32 pm 12:32 Cloudy with Light Rain 45 7 43 6 93 93 NW 7 11 29.97 1015 3 5 0.00 0.00
12:54 pm 12:54 Cloudy with Light Rain 40 4.4 38 3.3 93 93 NW 21 33 29.96 1015 3 5 0.03 0.76
1:14 pm 13:14 Cloudy with Light Rain 37 3 36 2 93 93 NNW 21 33 30.03 1017 10 16 0.00 0.00
1:54 pm 13:54 Cloudy with Light Rain 38 3.3 35 1.7 89 89 NNW 17 28 29.99 1016 10 16 0.00 0.03
2:21 pm 14:21 Cloudy 41 5 37 2.8 86 86 NNW 20 31 30.00 1016 10 16 0.00 0.03
2:54 pm 14:54 Cloudy 41 5 37 2.8 86 86 N 18 30 29.98 1015 10 16 0.00 0.03
3:54 pm 15:54 Cloudy 37 2.8 32 0 82 82 NW 21 33 30.02 1017 10 16 0.00 0.00
4:54 pm 16:54 Cloudy 36 2.2 30 -1.1 79 79 NNW 18 30 30.03 1017 10 16 0.00 0.00
5:29 pm 17:29 Cloudy 36 2.2 29 -1.7 76 76 NNW 16 26 30.09 1019 10 16 0.00 0.00
5:54 pm 17:54 Cloudy 36 2.2 29 -1.7 76 76 NNW 18 30 30.06 1018 10 16 0.00 0.00
6:54 pm 18:54 Cloudy 35 1.7 28 -2.2 76 76 NW 14 22 30.11 1020 10 16 0.00 0.00
7:31 pm 19:31 Cloudy 34 1.1 28 -2.2 79 79 NW 17 28 30.18 1022 10 16 0.00 0.00
7:54 pm 19:54 Cloudy 34 1.1 27 -2.8 76 76 NW 16 26 30.14 1021 10 16 0.00 0.00
8:54 pm 20:54 Cloudy 33 0.6 27 -2.8 78 78 NW 16 26 30.15 1021 10 16 0.00 0.00
9:10 pm 21:10 Mostly Cloudy 34 1 27 -3 75 75 NW 16 26 30.18 1022 10 16 0.00 0.00
9:43 pm 21:43 Mostly Cloudy 33 0.6 27 -2.8 78 78 NW 16 26 30.18 1022 10 16 0.00 0.00
9:54 pm 21:54 Mostly Cloudy 33 0.6 27 -2.8 78 78 NNW 20 31 30.15 1021 10 16 0.00 0.00
10:54 pm 22:54 Cloudy 34 1.1 27 -2.8 76 76 NNW 16 26 30.17 1022 10 16 0.00 0.00
11:54 pm 23:54 Cloudy 33 0.6 27 -2.8 78 78 NW 9 15 30.17 1022 10 16 0.00 0.00

Powered by AerisWeather